Location: Unspecified
(64.9000°N, 0.0000°E)
Time: 18:31:12
(UTC+00:00)

Transit 2A Rocket - Pass Details

Date: 22 June 2019
Orbit: 588 x 915 km, 66.7° (Epoch: 15 July)

Event Time Altitude Azimuth Distance (km) Brightness Sun altitude
Rises 13:57:12 0° 264° (W) 3,516 8.9 44.5°
Reaches altitude 10° 13:59:48 10° 266° (W) 2,548 8.3 44.4°
Maximum altitude 14:05:44 76° 352° (N) 871 5.9 43.9°
Drops below altitude 10° 14:11:12 10° 79° (E) 2,355 7.3 43.6°
Sets 14:13:31 0° 81° (E) 3,233 7.9 43.4°
